Overview Statistics Trail Chart Weather Telemetry Raw packets
 

This is the latest recevied weather packets stored in our database for station/object SR3WXA. If no packets are shown the sender has not sent any weather packets the latest 10 day(s).

<< 60 61 62 63 64 65 66 >>
Time Temp. Humidity Pressure Rain* Wind** Luminosity Snow
1788447160 21.67° C 60% 1015 hPa 0 mm - 130 W/m² -
1788446945 21.67° C 59% 1015 hPa 0 mm - 107 W/m² -
1788446860 21.67° C 59% 1015 hPa 0 mm - 107 W/m² -
1788446603 21.67° C 59% 1015 hPa 0 mm - 102 W/m² -
1788446560 21.67° C 59% 1015 hPa 0 mm - 102 W/m² -
1788446344 22.22° C 59% 1015.1 hPa 0 mm - 162 W/m² -
1788446260 22.22° C 59% 1015.1 hPa 0 mm - 162 W/m² -
1788446020 21.67° C 60% 1015.2 hPa 0 mm - 526 W/m² -
1788445960 21.67° C 60% 1015.2 hPa 0 mm - 526 W/m² -
1788445760 21.67° C 60% 1015.3 hPa 0 mm - 367 W/m² -
1788445660 21.67° C 60% 1015.3 hPa 0 mm - 367 W/m² -
1788445420 21.67° C 60% 1015.3 hPa 0 mm - 411 W/m² -
1788445360 21.67° C 60% 1015.3 hPa 0 mm - 411 W/m² -
1788444673 21.11° C 61% 1015.5 hPa 0 mm - 309 W/m² -
1788444610 21.11° C 61% 1015.5 hPa 0 mm - 309 W/m² -
1788444389 20.56° C 61% 1015.5 hPa 0 mm - 232 W/m² -
1788444309 20.56° C 61% 1015.5 hPa 0 mm - 232 W/m² -
1788444009 20.56° C 60% 1015.8 hPa 0 mm - 146 W/m² -
1788443793 21.11° C 59% 1015.9 hPa 0 mm - 148 W/m² -
1788443709 21.11° C 59% 1015.9 hPa 0 mm - 148 W/m² -
1788443409 21.11° C 61% 1015.8 hPa 0 mm - 111 W/m² -
1788442873 21.11° C 63% 1015.9 hPa 0 mm - 90 W/m² -
1788442809 21.11° C 63% 1015.9 hPa 0 mm - 90 W/m² -
1788442581 21.67° C 64% 1015.9 hPa 0 mm - 100 W/m² -
1788442509 21.67° C 64% 1015.9 hPa 0 mm - 100 W/m² -

* Rain latest hour (hover to see other rain measurements)
** Current wind speed in m/s (hover to see current wind gust speed)